| time (UTC) | temp F | wind direction | speed MPH | gust MPH | rain 1hr in | rain 24hr in | rain mn in | humidity % | barometer mb |
| 20260901025611 | 71 | 254 | 0.0 | 0.0 | 0.00 | 0.00 | 0.00 | 99 | 1019.5 |
| 20260901025110 | 71 | 254 | 0.0 | 0.0 | 0.00 | 0.00 | 0.00 | 99 | 1019.5 |
| 20260901024610 | 71 | 254 | 0.0 | 0.0 | 0.00 | 0.00 | 0.00 | 99 | 1019.5 |
| 20260901024110 | 72 | 254 | 0.0 | 0.0 | 0.00 | 0.00 | 0.00 | 99 | 1019.5 |
| 20260901023611 | 72 | 254 | 0.0 | 0.0 | 0.00 | 0.00 | 0.00 | 99 | 1019.5 |
| 20260901023107 | 72 | 254 | 0.0 | 0.0 | 0.00 | 0.00 | 0.00 | 99 | 1019.4 |
| 20260901022605 | 72 | 254 | 0.0 | 0.0 | 0.00 | 0.00 | 0.00 | 99 | 1019.4 |
| 20260901022107 | 72 | 254 | 0.0 | 0.0 | 0.00 | 0.00 | 0.00 | 99 | 1019.4 |
| 20260901021606 | 72 | 254 | 0.0 | 0.0 | 0.00 | 0.00 | 0.00 | 99 | 1019.4 |
| 20260901021106 | 72 | 254 | 0.0 | 0.0 | 0.00 | 0.00 | 0.00 | 98 | 1019.4 |
| 20260901020109 | 73 | 254 | 0.0 | 0.0 | 0.00 | 0.00 | 0.00 | 98 | 1019.3 |
| 20260901015608 | 73 | 254 | 0.0 | 0.0 | 0.00 | 0.00 | 0.00 | 98 | 1019.3 |
| 20260901015340 | 73 | 254 | 0.0 | 0.0 | 0.00 | 0.00 | 0.00 | 98 | 1019.3 |
| 20260901014605 | 73 | 254 | 0.0 | 0.0 | 0.00 | 0.00 | 0.00 | 98 | 1019.2 |
| 20260901014104 | 73 | 254 | 0.0 | 0.0 | 0.00 | 0.00 | 0.00 | 98 | 1019.2 |
| 20260901013605 | 73 | 254 | 0.0 | 0.0 | 0.00 | 0.00 | 0.00 | 98 | 1019.1 |
| 20260901013103 | 73 | 254 | 0.0 | 0.0 | 0.00 | 0.00 | 0.00 | 97 | 1019.1 |
| 20260901012602 | 74 | 254 | 0.0 | 0.0 | 0.00 | 0.00 | 0.00 | 97 | 1019.0 |
| 20260901012101 | 74 | 254 | 0.0 | 0.0 | 0.00 | 0.00 | 0.00 | 98 | 1018.9 |
| 20260901011602 | 74 | 254 | 0.0 | 0.0 | 0.00 | 0.00 | 0.00 | 98 | 1018.8 |
| 20260901011101 | 74 | 254 | 0.0 | 0.0 | 0.00 | 0.00 | 0.00 | 97 | 1018.8 |
| 20260901010100 | 74 | 254 | 0.0 | 0.0 | 0.00 | 0.00 | 0.00 | 97 | 1018.7 |
| 20260901005825 | 74 | 254 | 0.0 | 0.0 | 0.00 | 0.00 | 0.00 | 96 | 1018.7 |
| 20260901005319 | 74 | 254 | 0.0 | 0.0 | 0.00 | 0.00 | 0.00 | 96 | 1018.6 |
| 20260901004542 | 75 | 254 | 0.0 | 0.0 | 0.00 | 0.00 | 0.00 | 95 | 1018.6 |
| 20260901004036 | 75 | 254 | 0.0 | 0.0 | 0.00 | 0.00 | 0.00 | 95 | 1018.5 |
| 20260901003530 | 76 | 254 | 0.0 | 0.0 | 0.00 | 0.00 | 0.00 | 94 | 1018.6 |
| 20260901003255 | 76 | 254 | 0.0 | 0.0 | 0.00 | 0.00 | 0.00 | 94 | 1018.6 |
| 20260901002518 | 76 | 254 | 0.0 | 0.0 | 0.00 | 0.00 | 0.00 | 94 | 1018.5 |
| 20260901002012 | 77 | 254 | 0.0 | 0.0 | 0.00 | 0.00 | 0.00 | 94 | 1018.5 |
| 20260901001506 | 77 | 254 | 0.0 | 0.0 | 0.00 | 0.00 | 0.00 | 93 | 1018.5 |
| 20260901001000 | 77 | 254 | 0.0 | 0.0 | 0.00 | 0.00 | 0.00 | 93 | 1018.4 |
| 20260901000453 | 78 | 254 | 0.0 | 0.0 | 0.00 | 0.00 | 0.00 | 92 | 1018.5 |
| 20260831235948 | 78 | 254 | 0.0 | 0.0 | 0.00 | 0.00 | 0.00 | 92 | 1018.4 |
| 20260831235442 | 78 | 254 | 0.0 | 0.0 | 0.00 | 0.00 | 0.00 | 91 | 1018.5 |
| 20260831235208 | 79 | 254 | 0.0 | 0.0 | 0.00 | 0.00 | 0.00 | 90 | 1018.5 |
| 20260831234435 | 80 | 254 | 0.0 | 0.0 | 0.00 | 0.00 | 0.00 | 90 | 1018.5 |
| 20260831234154 | 80 | 254 | 0.0 | 0.0 | 0.00 | 0.00 | 0.00 | 90 | 1018.4 |
| 20260831233649 | 80 | 254 | 0.0 | 0.0 | 0.00 | 0.00 | 0.00 | 89 | 1018.5 |
| 20260831232912 | 80 | 254 | 0.0 | 0.0 | 0.00 | 0.00 | 0.00 | 89 | 1018.5 |
| 20260831232405 | 80 | 254 | 0.0 | 0.0 | 0.00 | 0.00 | 0.00 | 88 | 1018.5 |
| 20260831231900 | 80 | 254 | 0.0 | 0.0 | 0.00 | 0.00 | 0.00 | 89 | 1018.5 |
| 20260831231624 | 80 | 254 | 0.0 | 0.0 | 0.00 | 0.00 | 0.00 | 88 | 1018.6 |
| 20260831230847 | 80 | 254 | 0.0 | 0.0 | 0.00 | 0.00 | 0.00 | 89 | 1018.5 |
| 20260831230342 | 80 | 254 | 0.0 | 0.0 | 0.00 | 0.00 | 0.00 | 89 | 1018.5 |
| 20260831225836 | 80 | 254 | 0.0 | 0.0 | 0.00 | 0.00 | 0.00 | 90 | 1018.5 |
| 20260831225601 | 80 | 254 | 0.0 | 0.0 | 0.00 | 0.00 | 0.00 | 88 | 1018.5 |
| 20260831224824 | 80 | 254 | 0.0 | 0.0 | 0.00 | 0.00 | 0.00 | 87 | 1018.5 |
| 20260831224318 | 80 | 254 | 0.0 | 0.0 | 0.00 | 0.00 | 0.00 | 86 | 1018.6 |
| 20260831223812 | 81 | 254 | 0.0 | 0.0 | 0.00 | 0.00 | 0.00 | 85 | 1018.6 |
| 20260831223306 | 81 | 254 | 0.0 | 0.0 | 0.00 | 0.00 | 0.00 | 83 | 1018.5 |
| 20260831223031 | 81 | 254 | 0.0 | 0.0 | 0.00 | 0.00 | 0.00 | 84 | 1018.6 |
| 20260831222254 | 80 | 254 | 0.0 | 0.0 | 0.00 | 0.00 | 0.00 | 83 | 1018.6 |
| 20260831221748 | 80 | 254 | 0.0 | 0.0 | 0.00 | 0.00 | 0.00 | 84 | 1018.7 |
| 20260831221241 | 80 | 254 | 0.0 | 0.0 | 0.00 | 0.00 | 0.00 | 83 | 1018.8 |
| 20260831220736 | 81 | 19 | 0.0 | 0.0 | 0.00 | 0.00 | 0.00 | 86 | 1018.8 |
| 20260831220230 | 81 | 19 | 0.0 | 0.0 | 0.00 | 0.00 | 0.00 | 84 | 1018.7 |
| 20260831215724 | 81 | 19 | 0.0 | 0.0 | 0.00 | 0.00 | 0.00 | 84 | 1018.8 |
| 20260831215217 | 81 | 19 | 0.0 | 0.0 | 0.00 | 0.00 | 0.00 | 82 | 1018.8 |
| 20260831214712 | 81 | 19 | 0.0 | 5.0 | 0.00 | 0.00 | 0.00 | 81 | 1018.9 |
| 20260831214206 | 81 | 22 | 0.0 | 5.0 | 0.00 | 0.00 | 0.00 | 80 | 1019.0 |
| 20260831213659 | 81 | 346 | 1.0 | 5.0 | 0.00 | 0.00 | 0.00 | 80 | 1019.0 |
| 20260831213154 | 82 | 17 | 0.0 | 4.0 | 0.00 | 0.00 | 0.00 | 79 | 1019.0 |
| 20260831212648 | 82 | 20 | 0.0 | 5.0 | 0.00 | 0.00 | 0.00 | 81 | 1019.1 |
| 20260831212141 | 82 | 20 | 1.0 | 5.0 | 0.00 | 0.00 | 0.00 | 78 | 1019.1 |
| 20260831211636 | 83 | 348 | 0.0 | 5.0 | 0.00 | 0.00 | 0.00 | 78 | 1019.1 |
| 20260831211130 | 83 | 355 | 1.0 | 8.0 | 0.00 | 0.00 | 0.00 | 78 | 1019.0 |
| 20260831210624 | 83 | 340 | 1.0 | 8.0 | 0.00 | 0.00 | 0.00 | 77 | 1019.1 |
| 20260831210117 | 84 | 340 | 2.0 | 11.0 | 0.00 | 0.00 | 0.00 | 77 | 1019.1 |
| 20260831205612 | 84 | 348 | 5.0 | 12.0 | 0.00 | 0.00 | 0.00 | 75 | 1019.0 |
| 20260831205106 | 86 | 5 | 3.0 | 12.0 | 0.00 | 0.00 | 0.00 | 72 | 1019.0 |
| 20260831204600 | 88 | 5 | 1.0 | 5.0 | 0.00 | 0.00 | 0.00 | 74 | 1018.9 |
| 20260831204054 | 89 | 340 | 1.0 | 6.0 | 0.00 | 0.00 | 0.00 | 69 | 1018.8 |
| 20260831203547 | 89 | 348 | 0.0 | 5.0 | 0.00 | 0.00 | 0.00 | 66 | 1018.9 |
| 20260831203042 | 91 | 339 | 0.0 | 3.0 | 0.00 | 0.00 | 0.00 | 63 | 1018.9 |
| 20260831202816 | 91 | 9 | 0.0 | 4.0 | 0.00 | 0.00 | 0.00 | 60 | 1018.9 |
| 20260831202031 | 91 | 9 | 1.0 | 5.0 | 0.00 | 0.00 | 0.00 | 62 | 1019.0 |
| 20260831201018 | 91 | 350 | 0.0 | 4.0 | 0.00 | 0.00 | 0.00 | 62 | 1019.0 |
| 20260831200512 | 91 | 346 | 0.0 | 4.0 | 0.00 | 0.00 | 0.00 | 63 | 1019.0 |
| 20260831200006 | 91 | 264 | 0.0 | 0.0 | 0.00 | 0.00 | 0.00 | 66 | 1018.9 |
| 20260831195506 | 91 | 332 | 0.0 | 2.0 | 0.00 | 0.00 | 0.00 | 64 | 1018.9 |
| 20260831195003 | 91 | 332 | 0.0 | 2.0 | 0.00 | 0.00 | 0.00 | 62 | 1019.0 |
| 20260831193959 | 91 | 0 | 0.0 | 2.0 | 0.00 | 0.00 | 0.00 | 66 | 1019.2 |
| 20260831193458 | 91 | 0 | 0.0 | 2.0 | 0.00 | 0.00 | 0.00 | 63 | 1019.2 |
| 20260831192958 | 91 | 13 | 0.0 | 2.0 | 0.00 | 0.00 | 0.00 | 62 | 1019.3 |
| 20260831192458 | 91 | 309 | 0.0 | 2.0 | 0.00 | 0.00 | 0.00 | 65 | 1019.3 |
| 20260831192001 | 91 | 309 | 0.0 | 3.0 | 0.00 | 0.00 | 0.00 | 66 | 1019.3 |
| 20260831191458 | 90 | 309 | 0.0 | 5.0 | 0.00 | 0.00 | 0.00 | 69 | 1019.3 |
| 20260831190955 | 90 | 5 | 0.0 | 5.0 | 0.00 | 0.00 | 0.00 | 65 | 1019.4 |
| 20260831190456 | 90 | 265 | 0.0 | 3.0 | 0.00 | 0.00 | 0.00 | 66 | 1019.3 |
| 20260831190227 | 90 | 265 | 0.0 | 3.0 | 0.00 | 0.00 | 0.00 | 64 | 1019.4 |
| 20260831185453 | 90 | 246 | 0.0 | 3.0 | 0.00 | 0.00 | 0.00 | 67 | 1019.4 |
| 20260831184953 | 90 | 246 | 0.0 | 3.0 | 0.00 | 0.00 | 0.00 | 65 | 1019.5 |
| 20260831184725 | 91 | 264 | 0.0 | 3.0 | 0.00 | 0.00 | 0.00 | 62 | 1019.5 |
| 20260831183954 | 90 | 5 | 0.0 | 0.0 | 0.00 | 0.00 | 0.00 | 69 | 1019.8 |
| 20260831183452 | 90 | 5 | 0.0 | 0.0 | 0.00 | 0.00 | 0.00 | 65 | 1019.9 |
| 20260831182952 | 89 | 5 | 0.0 | 4.0 | 0.00 | 0.00 | 0.00 | 71 | 1019.8 |
| 20260831182453 | 89 | 5 | 0.0 | 4.0 | 0.00 | 0.00 | 0.00 | 65 | 1019.9 |
| 20260831181955 | 89 | 72 | 0.0 | 1.0 | 0.00 | 0.00 | 0.00 | 67 | 1019.9 |
| 20260831181454 | 89 | 321 | 0.0 | 1.0 | 0.00 | 0.00 | 0.00 | 72 | 1020.0 |
| 20260831180953 | 89 | 319 | 0.0 | 1.0 | 0.00 | 0.00 | 0.00 | 68 | 1020.0 |
| 20260831180453 | 89 | 319 | 0.0 | 1.0 | 0.00 | 0.00 | 0.00 | 68 | 1020.1 |
| 20260831180000 | 88 | 321 | 0.0 | 3.0 | 0.00 | 0.00 | 0.00 | 73 | 1020.2 |
| 20260831175453 | 88 | 321 | 0.0 | 3.0 | 0.00 | 0.00 | 0.00 | 70 | 1020.2 |
| 20260831174952 | 88 | 279 | 0.0 | 3.0 | 0.00 | 0.00 | 0.00 | 69 | 1020.3 |
| 20260831174453 | 88 | 269 | 0.0 | 1.0 | 0.00 | 0.00 | 0.00 | 70 | 1020.3 |
| 20260831174224 | 88 | 269 | 0.0 | 4.0 | 0.00 | 0.00 | 0.00 | 71 | 1020.4 |
| 20260831173452 | 88 | 269 | 0.0 | 4.0 | 0.00 | 0.00 | 0.00 | 72 | 1020.4 |
| 20260831172723 | 88 | 263 | 0.0 | 6.0 | 0.00 | 0.00 | 0.00 | 73 | 1020.5 |
| 20260831171956 | 88 | 306 | 0.0 | 2.0 | 0.00 | 0.00 | 0.00 | 72 | 1020.5 |
| 20260831171452 | 87 | 306 | 0.0 | 2.0 | 0.00 | 0.00 | 0.00 | 74 | 1020.4 |
| 20260831170953 | 87 | 319 | 0.0 | 2.0 | 0.00 | 0.00 | 0.00 | 73 | 1020.5 |
| 20260831170447 | 87 | 319 | 0.0 | 2.0 | 0.00 | 0.00 | 0.00 | 73 | 1020.5 |
| 20260831165941 | 87 | 273 | 0.0 | 1.0 | 0.00 | 0.00 | 0.00 | 72 | 1020.6 |
| 20260831165435 | 86 | 272 | 0.0 | 1.0 | 0.00 | 0.00 | 0.00 | 77 | 1020.7 |
| 20260831164930 | 86 | 272 | 1.0 | 6.0 | 0.00 | 0.00 | 0.00 | 78 | 1020.7 |
| 20260831164423 | 86 | 272 | 1.0 | 7.0 | 0.00 | 0.00 | 0.00 | 74 | 1020.8 |
| 20260831163917 | 86 | 254 | 0.0 | 7.0 | 0.00 | 0.00 | 0.00 | 79 | 1020.8 |
| 20260831163411 | 86 | 244 | 0.0 | 2.0 | 0.00 | 0.00 | 0.00 | 74 | 1020.8 |
| 20260831163135 | 86 | 244 | 0.0 | 0.0 | 0.00 | 0.00 | 0.00 | 77 | 1020.9 |
| 20260831162359 | 86 | 244 | 1.0 | 5.0 | 0.00 | 0.00 | 0.00 | 78 | 1020.9 |
| 20260831161853 | 85 | 244 | 1.0 | 5.0 | 0.00 | 0.00 | 0.00 | 77 | 1020.8 |
| 20260831161618 | 85 | 289 | 0.0 | 1.0 | 0.00 | 0.00 | 0.00 | 81 | 1020.9 |
| 20260831160335 | 84 | 286 | 1.0 | 4.0 | 0.00 | 0.00 | 0.00 | 78 | 1020.9 |
| 20260831155828 | 84 | 294 | 1.0 | 4.0 | 0.00 | 0.00 | 0.00 | 76 | 1020.9 |
| 20260831155323 | 84 | 254 | 1.0 | 4.0 | 0.00 | 0.00 | 0.00 | 79 | 1020.9 |
| 20260831154817 | 84 | 254 | 1.0 | 4.0 | 0.00 | 0.00 | 0.00 | 78 | 1021.0 |
| 20260831154310 | 84 | 217 | 0.0 | 0.0 | 0.00 | 0.00 | 0.00 | 80 | 1021.0 |
| 20260831153805 | 83 | 217 | 0.0 | 4.0 | 0.00 | 0.00 | 0.00 | 78 | 1021.0 |
| 20260831153258 | 83 | 217 | 0.0 | 4.0 | 0.00 | 0.00 | 0.00 | 78 | 1021.0 |
| 20260831152752 | 83 | 221 | 1.0 | 3.0 | 0.00 | 0.00 | 0.00 | 80 | 1021.0 |
| 20260831152247 | 83 | 221 | 2.0 | 6.0 | 0.00 | 0.00 | 0.00 | 81 | 1021.0 |
| 20260831151740 | 83 | 221 | 1.0 | 6.0 | 0.00 | 0.00 | 0.00 | 81 | 1021.0 |
| 20260831151235 | 83 | 252 | 1.0 | 3.0 | 0.00 | 0.00 | 0.00 | 83 | 1021.1 |
| 20260831150730 | 82 | 315 | 1.0 | 6.0 | 0.00 | 0.00 | 0.00 | 82 | 1021.1 |
| 20260831150223 | 82 | 315 | 0.0 | 6.0 | 0.00 | 0.00 | 0.00 | 87 | 1021.1 |
| 20260831145717 | 82 | 228 | 0.0 | 4.0 | 0.00 | 0.00 | 0.00 | 84 | 1021.1 |
| 20260831145210 | 82 | 228 | 0.0 | 4.0 | 0.00 | 0.00 | 0.00 | 83 | 1021.1 |
| 20260831144710 | 82 | 229 | 0.0 | 4.0 | 0.00 | 0.00 | 0.00 | 84 | 1021.2 |
| 20260831144159 | 81 | 229 | 0.0 | 4.0 | 0.00 | 0.00 | 0.00 | 84 | 1021.1 |
| 20260831143927 | 81 | 188 | 0.0 | 2.0 | 0.00 | 0.00 | 0.00 | 84 | 1021.2 |
| 20260831143147 | 81 | 188 | 0.0 | 0.0 | 0.00 | 0.00 | 0.00 | 88 | 1021.2 |
| 20260831142641 | 80 | 188 | 0.0 | 2.0 | 0.00 | 0.00 | 0.00 | 87 | 1021.2 |
| 20260831141629 | 80 | 186 | 0.0 | 1.0 | 0.00 | 0.00 | 0.00 | 88 | 1021.1 |
| 20260831141353 | 79 | 244 | 0.0 | 0.0 | 0.00 | 0.00 | 0.00 | 87 | 1021.1 |
| 20260831140617 | 79 | 246 | 0.0 | 0.0 | 0.00 | 0.00 | 0.00 | 88 | 1021.1 |
| 20260831140111 | 78 | 246 | 0.0 | 1.0 | 0.00 | 0.00 | 0.00 | 90 | 1021.1 |
| 20260831135835 | 77 | 246 | 0.0 | 1.0 | 0.00 | 0.00 | 0.00 | 91 | 1021.0 |
| 20260831135058 | 77 | 246 | 0.0 | 1.0 | 0.00 | 0.00 | 0.00 | 91 | 1021.0 |
| 20260831134553 | 76 | 246 | 0.0 | 2.0 | 0.00 | 0.00 | 0.00 | 93 | 1020.9 |
| 20260831134047 | 76 | 246 | 0.0 | 2.0 | 0.00 | 0.00 | 0.00 | 93 | 1021.0 |
| 20260831133034 | 75 | 9 | 0.0 | 0.0 | 0.00 | 0.00 | 0.00 | 100 | 1020.9 |
| 20260831132759 | 74 | 351 | 0.0 | 0.0 | 0.00 | 0.00 | 0.00 | 100 | 1020.9 |
| 20260831132022 | 74 | 325 | 0.0 | 0.0 | 0.00 | 0.00 | 0.00 | 100 | 1021.0 |
| 20260831131517 | 73 | 279 | 0.0 | 0.0 | 0.00 | 0.00 | 0.00 | 100 | 1021.0 |
| 20260831131014 | 73 | 279 | 0.0 | 0.0 | 0.00 | 0.00 | 0.00 | 100 | 1021.0 |
| 20260831130514 | 72 | 279 | 0.0 | 0.0 | 0.00 | 0.00 | 0.00 | 100 | 1021.0 |
| 20260831130014 | 72 | 279 | 0.0 | 0.0 | 0.00 | 0.00 | 0.00 | 100 | 1021.0 |
| 20260831125517 | 71 | 279 | 0.0 | 0.0 | 0.00 | 0.00 | 0.00 | 100 | 1021.0 |
| 20260831125013 | 71 | 279 | 0.0 | 0.0 | 0.00 | 0.00 | 0.00 | 100 | 1021.0 |
| 20260831124511 | 70 | 279 | 0.0 | 0.0 | 0.00 | 0.00 | 0.00 | 100 | 1021.0 |
| 20260831124013 | 69 | 279 | 0.0 | 0.0 | 0.00 | 0.00 | 0.00 | 100 | 1021.0 |
| 20260831123743 | 68 | 279 | 0.0 | 0.0 | 0.00 | 0.00 | 0.00 | 100 | 1021.0 |
| 20260831123012 | 67 | 279 | 0.0 | 0.0 | 0.00 | 0.00 | 0.00 | 100 | 1020.9 |
| 20260831122511 | 67 | 279 | 0.0 | 0.0 | 0.00 | 0.00 | 0.00 | 100 | 1021.0 |
| 20260831122014 | 66 | 279 | 0.0 | 0.0 | 0.00 | 0.00 | 0.00 | 100 | 1021.0 |
| 20260831121740 | 66 | 279 | 0.0 | 0.0 | 0.00 | 0.00 | 0.00 | 100 | 1021.0 |
| 20260831121004 | 66 | 279 | 0.0 | 0.0 | 0.00 | 0.00 | 0.00 | 100 | 1021.1 |
| 20260831120505 | 66 | 279 | 0.0 | 0.0 | 0.00 | 0.00 | 0.00 | 100 | 1021.0 |
| 20260831120004 | 65 | 279 | 0.0 | 0.0 | 0.00 | 0.00 | 0.00 | 100 | 1021.1 |
| 20260831115503 | 65 | 279 | 0.0 | 0.0 | 0.00 | 0.00 | 0.00 | 100 | 1021.1 |
| 20260831115001 | 65 | 279 | 0.0 | 0.0 | 0.00 | 0.00 | 0.00 | 100 | 1021.0 |
| 20260831114500 | 65 | 279 | 0.0 | 0.0 | 0.00 | 0.00 | 0.00 | 100 | 1021.0 |
| 20260831113956 | 65 | 279 | 0.0 | 0.0 | 0.00 | 0.00 | 0.00 | 100 | 1021.0 |
| 20260831113500 | 65 | 279 | 0.0 | 0.0 | 0.00 | 0.00 | 0.00 | 100 | 1020.9 |
| 20260831112957 | 65 | 279 | 0.0 | 0.0 | 0.00 | 0.00 | 0.00 | 100 | 1020.9 |
| 20260831112456 | 65 | 279 | 0.0 | 0.0 | 0.00 | 0.00 | 0.00 | 100 | 1020.9 |
| 20260831111956 | 65 | 279 | 0.0 | 0.0 | 0.00 | 0.00 | 0.00 | 100 | 1020.8 |
| 20260831111456 | 65 | 279 | 0.0 | 0.0 | 0.00 | 0.00 | 0.00 | 100 | 1020.7 |
| 20260831110957 | 65 | 279 | 0.0 | 0.0 | 0.00 | 0.00 | 0.00 | 100 | 1020.7 |
| 20260831110457 | 65 | 279 | 0.0 | 0.0 | 0.00 | 0.00 | 0.00 | 100 | 1020.6 |
| 20260831110229 | 65 | 279 | 0.0 | 0.0 | 0.00 | 0.00 | 0.00 | 100 | 1020.6 |
| 20260831105728 | 65 | 279 | 0.0 | 0.0 | 0.00 | 0.00 | 0.00 | 100 | 1020.5 |
| 20260831104955 | 65 | 279 | 0.0 | 0.0 | 0.00 | 0.00 | 0.00 | 100 | 1020.4 |
| 20260831104457 | 65 | 279 | 0.0 | 0.0 | 0.00 | 0.00 | 0.00 | 100 | 1020.4 |
| 20260831103954 | 65 | 279 | 0.0 | 0.0 | 0.00 | 0.00 | 0.00 | 100 | 1020.4 |
| 20260831103453 | 65 | 279 | 0.0 | 0.0 | 0.00 | 0.00 | 0.00 | 100 | 1020.4 |
| 20260831102956 | 65 | 279 | 0.0 | 0.0 | 0.00 | 0.00 | 0.00 | 100 | 1020.4 |
| 20260831102731 | 65 | 279 | 0.0 | 0.0 | 0.00 | 0.00 | 0.00 | 100 | 1020.4 |
| 20260831101954 | 65 | 279 | 0.0 | 0.0 | 0.00 | 0.00 | 0.00 | 100 | 1020.4 |
| 20260831101455 | 65 | 279 | 0.0 | 0.0 | 0.00 | 0.00 | 0.00 | 100 | 1020.3 |
| 20260831100953 | 65 | 279 | 0.0 | 0.0 | 0.00 | 0.00 | 0.00 | 100 | 1020.3 |
| 20260831100452 | 65 | 279 | 0.0 | 0.0 | 0.00 | 0.00 | 0.00 | 100 | 1020.3 |
| 20260831095955 | 65 | 279 | 0.0 | 0.0 | 0.00 | 0.00 | 0.00 | 100 | 1020.2 |
| 20260831095445 | 65 | 279 | 0.0 | 0.0 | 0.00 | 0.00 | 0.00 | 100 | 1020.2 |
| 20260831094945 | 65 | 279 | 0.0 | 0.0 | 0.00 | 0.00 | 0.00 | 100 | 1020.2 |
| 20260831094435 | 65 | 279 | 0.0 | 0.0 | 0.00 | 0.00 | 0.00 | 100 | 1020.3 |
| 20260831093935 | 65 | 279 | 0.0 | 0.0 | 0.00 | 0.00 | 0.00 | 100 | 1020.3 |
| 20260831093426 | 65 | 279 | 0.0 | 0.0 | 0.00 | 0.00 | 0.00 | 100 | 1020.3 |
| 20260831092927 | 65 | 279 | 0.0 | 0.0 | 0.00 | 0.00 | 0.00 | 100 | 1020.3 |
| 20260831092423 | 65 | 279 | 0.0 | 0.0 | 0.00 | 0.00 | 0.00 | 100 | 1020.2 |
| 20260831092153 | 65 | 279 | 0.0 | 0.0 | 0.00 | 0.00 | 0.00 | 100 | 1020.2 |
| 20260831091421 | 65 | 279 | 0.0 | 0.0 | 0.00 | 0.00 | 0.00 | 100 | 1020.2 |
| 20260831090917 | 66 | 279 | 0.0 | 0.0 | 0.00 | 0.00 | 0.00 | 100 | 1020.2 |
| 20260831090428 | 66 | 279 | 0.0 | 0.0 | 0.00 | 0.00 | 0.00 | 100 | 1020.2 |
| 20260831085925 | 66 | 279 | 0.0 | 0.0 | 0.00 | 0.00 | 0.00 | 100 | 1020.2 |
| 20260831085741 | 66 | 279 | 0.0 | 0.0 | 0.00 | 0.00 | 0.00 | 100 | 1020.1 |
| 20260831084922 | 66 | 279 | 0.0 | 0.0 | 0.00 | 0.00 | 0.00 | 100 | 1020.0 |
| 20260831084423 | 66 | 279 | 0.0 | 0.0 | 0.00 | 0.00 | 0.00 | 100 | 1020.0 |
| 20260831083914 | 66 | 279 | 0.0 | 0.0 | 0.00 | 0.00 | 0.00 | 100 | 1020.1 |
| 20260831083414 | 66 | 279 | 0.0 | 0.0 | 0.00 | 0.00 | 0.00 | 100 | 1020.1 |
| 20260831082915 | 66 | 279 | 0.0 | 0.0 | 0.00 | 0.00 | 0.00 | 100 | 1020.2 |
| 20260831082413 | 66 | 279 | 0.0 | 0.0 | 0.00 | 0.00 | 0.00 | 100 | 1020.2 |
| 20260831081913 | 66 | 279 | 0.0 | 0.0 | 0.00 | 0.00 | 0.00 | 100 | 1020.2 |
| 20260831081645 | 66 | 279 | 0.0 | 0.0 | 0.00 | 0.00 | 0.00 | 100 | 1020.1 |
| 20260831080908 | 66 | 279 | 0.0 | 0.0 | 0.00 | 0.00 | 0.00 | 100 | 1020.2 |
| 20260831080418 | 66 | 279 | 0.0 | 0.0 | 0.00 | 0.00 | 0.00 | 100 | 1020.2 |
| 20260831075913 | 66 | 279 | 0.0 | 0.0 | 0.00 | 0.00 | 0.00 | 100 | 1020.2 |
| 20260831075405 | 66 | 279 | 0.0 | 0.0 | 0.00 | 0.00 | 0.00 | 100 | 1020.2 |
| 20260831074901 | 66 | 279 | 0.0 | 0.0 | 0.00 | 0.00 | 0.00 | 100 | 1020.3 |
| 20260831074355 | 66 | 279 | 0.0 | 0.0 | 0.00 | 0.00 | 0.00 | 100 | 1020.2 |
| 20260831073849 | 67 | 279 | 0.0 | 0.0 | 0.00 | 0.00 | 0.00 | 100 | 1020.2 |
| 20260831073339 | 67 | 279 | 0.0 | 0.0 | 0.00 | 0.00 | 0.00 | 100 | 1020.1 |
| 20260831072838 | 67 | 279 | 0.0 | 0.0 | 0.00 | 0.00 | 0.00 | 100 | 1020.2 |
| 20260831072331 | 67 | 279 | 0.0 | 0.0 | 0.00 | 0.00 | 0.00 | 100 | 1020.1 |
| 20260831071820 | 67 | 279 | 0.0 | 0.0 | 0.00 | 0.00 | 0.00 | 100 | 1020.2 |
| 20260831071327 | 67 | 279 | 0.0 | 0.0 | 0.00 | 0.00 | 0.00 | 100 | 1020.1 |
| 20260831070813 | 67 | 279 | 0.0 | 0.0 | 0.00 | 0.00 | 0.00 | 100 | 1020.1 |
| 20260831070303 | 67 | 279 | 0.0 | 0.0 | 0.00 | 0.00 | 0.00 | 100 | 1020.1 |
| 20260831070212 | 67 | 279 | 0.0 | 0.0 | 0.00 | 0.00 | 0.00 | 100 | 1020.1 |
| 20260831065259 | 67 | 279 | 0.0 | 0.0 | 0.00 | 0.00 | 0.00 | 100 | 1020.1 |
| 20260831064756 | 67 | 279 | 0.0 | 0.0 | 0.00 | 0.00 | 0.00 | 100 | 1020.2 |
| 20260831064226 | 67 | 279 | 0.0 | 0.0 | 0.00 | 0.00 | 0.00 | 100 | 1020.2 |
| 20260831063720 | 67 | 279 | 0.0 | 0.0 | 0.00 | 0.00 | 0.00 | 100 | 1020.2 |
| 20260831063214 | 67 | 279 | 0.0 | 0.0 | 0.00 | 0.00 | 0.00 | 100 | 1020.4 |
| 20260831062709 | 67 | 279 | 0.0 | 0.0 | 0.00 | 0.00 | 0.00 | 100 | 1020.4 |
| 20260831062203 | 67 | 279 | 0.0 | 0.0 | 0.00 | 0.00 | 0.00 | 100 | 1020.4 |
| 20260831061716 | 67 | 279 | 0.0 | 0.0 | 0.00 | 0.00 | 0.00 | 100 | 1020.5 |
| 20260831061208 | 67 | 279 | 0.0 | 0.0 | 0.00 | 0.00 | 0.00 | 100 | 1020.5 |
| 20260831060958 | 67 | 279 | 0.0 | 0.0 | 0.00 | 0.00 | 0.00 | 99 | 1020.5 |
| 20260831060150 | 67 | 279 | 0.0 | 0.0 | 0.00 | 0.00 | 0.00 | 99 | 1020.5 |
| 20260831060106 | 68 | 279 | 0.0 | 0.0 | 0.00 | 0.00 | 0.00 | 100 | 1020.5 |
| 20260831055127 | 68 | 279 | 0.0 | 0.0 | 0.00 | 0.00 | 0.00 | 100 | 1020.5 |
| 20260831054621 | 68 | 279 | 0.0 | 0.0 | 0.00 | 0.00 | 0.00 | 99 | 1020.5 |
| 20260831054131 | 68 | 279 | 0.0 | 0.0 | 0.00 | 0.00 | 0.00 | 99 | 1020.5 |
| 20260831053901 | 68 | 279 | 0.0 | 0.0 | 0.00 | 0.00 | 0.00 | 100 | 1020.5 |
| 20260831053121 | 68 | 279 | 0.0 | 0.0 | 0.00 | 0.00 | 0.00 | 100 | 1020.5 |
| 20260831052620 | 69 | 279 | 0.0 | 0.0 | 0.00 | 0.00 | 0.00 | 100 | 1020.4 |
| 20260831052114 | 69 | 279 | 0.0 | 0.0 | 0.00 | 0.00 | 0.00 | 100 | 1020.4 |
| 20260831051612 | 69 | 279 | 0.0 | 0.0 | 0.00 | 0.00 | 0.00 | 100 | 1020.4 |
| 20260831051344 | 68 | 279 | 0.0 | 0.0 | 0.00 | 0.00 | 0.00 | 100 | 1020.4 |
| 20260831050613 | 68 | 279 | 0.0 | 0.0 | 0.00 | 0.00 | 0.00 | 99 | 1020.6 |
| 20260831050112 | 68 | 279 | 0.0 | 0.0 | 0.00 | 0.00 | 0.00 | 99 | 1020.6 |
| 20260831045614 | 68 | 279 | 0.0 | 0.0 | 0.00 | 0.00 | 0.00 | 99 | 1020.6 |
| 20260831045116 | 69 | 279 | 0.0 | 0.0 | 0.00 | 0.00 | 0.00 | 99 | 1020.6 |
| 20260831044611 | 69 | 279 | 0.0 | 0.0 | 0.00 | 0.00 | 0.00 | 100 | 1020.5 |
| 20260831044112 | 69 | 279 | 0.0 | 0.0 | 0.00 | 0.00 | 0.00 | 100 | 1020.5 |
| 20260831043610 | 69 | 279 | 0.0 | 0.0 | 0.00 | 0.00 | 0.00 | 100 | 1020.5 |
| 20260831043340 | 69 | 279 | 0.0 | 0.0 | 0.00 | 0.00 | 0.00 | 100 | 1020.6 |
| 20260831042609 | 69 | 279 | 0.0 | 0.0 | 0.00 | 0.01 | 0.00 | 99 | 1020.7 |
| 20260831042110 | 69 | 279 | 0.0 | 0.0 | 0.00 | 0.02 | 0.00 | 99 | 1020.8 |
| 20260831041336 | 69 | 279 | 0.0 | 0.0 | 0.00 | 0.14 | 0.00 | 99 | 1020.7 |
| 20260831040606 | 69 | 279 | 0.0 | 0.0 | 0.00 | 0.20 | 0.00 | 99 | 1020.7 |
| 20260831040105 | 69 | 279 | 0.0 | 0.0 | 0.00 | 0.22 | 0.00 | 99 | 1020.7 |
| 20260831035603 | 69 | 279 | 0.0 | 0.0 | 0.00 | 0.22 | 0.22 | 99 | 1020.8 |
| 20260831035104 | 70 | 279 | 0.0 | 0.0 | 0.00 | 0.22 | 0.22 | 99 | 1020.8 |
| 20260831034603 | 70 | 279 | 0.0 | 0.0 | 0.00 | 0.22 | 0.22 | 99 | 1020.8 |
| 20260831034105 | 70 | 279 | 0.0 | 0.0 | 0.00 | 0.22 | 0.22 | 99 | 1020.8 |
| 20260831033605 | 70 | 279 | 0.0 | 0.0 | 0.00 | 0.22 | 0.22 | 99 | 1020.9 |
| 20260831033105 | 70 | 279 | 0.0 | 0.0 | 0.00 | 0.22 | 0.22 | 99 | 1020.9 |
| 20260831032604 | 70 | 279 | 0.0 | 0.0 | 0.00 | 0.22 | 0.22 | 99 | 1020.9 |
| 20260831032105 | 70 | 279 | 0.0 | 0.0 | 0.00 | 0.22 | 0.22 | 99 | 1020.9 |
| 20260831031603 | 70 | 279 | 0.0 | 0.0 | 0.00 | 0.22 | 0.22 | 99 | 1020.9 |
| 20260831031104 | 70 | 279 | 0.0 | 0.0 | 0.00 | 0.22 | 0.22 | 99 | 1020.9 |
| 20260831030603 | 70 | 279 | 0.0 | 0.0 | 0.00 | 0.22 | 0.22 | 99 | 1020.9 |
| 20260831030104 | 70 | 279 | 0.0 | 0.0 | 0.00 | 0.22 | 0.22 | 99 | 1020.9 |